Del Bajio, Mexico

5:12 AM CDT on April 26, 2017 (GMT -0500)
De Guanajuato International

Weather History for MMLO - May, 2013

Change the Weather History Date:

Monday, May 6, 2013

  Actual Average Record
Temperature  
Mean Temperature 70 °F -  
Max Temperature 89 °F 88 °F 96 °F (2003)
Min Temperature 51 °F 56 °F 51 °F (1999)
Cooling Degree Days 5    
Growing Degree Days 20 (Base 50)    
Moisture  
Dew Point 29 °F    
Average Humidity 28    
Maximum Humidity 62    
Minimum Humidity 7    
Precipitation  
Precipitation 0.00 in - - ()
Sea Level Pressure  
Sea Level Pressure 30.06 in    
Wind  
Wind Speed 4 mph ()    
Max Wind Speed 15 mph    
Max Gust Speed -    
Visibility 8.3 miles    
Events      
Averages and records for this station are not official NWS values.
T = Trace of Precipitation, MM = Missing Value Source: Averaged Metar Reports

Daily Weather History Graph

Daily Weather History Graph

Search for Another Location

Airport or City:

Trip Planner

Search our weather history database for the weather conditions in past years. The results will help you decide how hot, cold, wet, or windy it might be!

Date:

Astronomy

May. 06, 2013 Rise Set
Actual Time 7:12 AM CDT 8:12 PM CDT
Civil Twilight 6:48 AM CDT 8:36 PM CDT
Nautical Twilight 6:21 AM CDT 9:04 PM CDT
Astronomical Twilight 5:52 AM CDT 9:32 PM CDT
Moon 4:52 AM CDT (5/6) 5:34 PM CDT (5/6)
Length of Visible Light 13h 47m
Length of Day
13h 00m
Waning Crescent, 11% of the Moon is Illuminated
May 6
Waning Crescent
May 9
New
May 17
First Quarter
May 24
Full
May 31
Last Quarter

Hourly Weather History & Observations

Time (CDT) Temp. Dew Point Humidity Pressure Visibility Wind Dir Wind Speed Gust Speed Precip Events Conditions
12:50 AM 60.8 °F 30.2 °F 31% 29.80 in 8.0 mi ESE 5.8 mph - N/A   Clear
1:50 AM 62.6 °F 37.4 °F 39% 30.20 in 8.0 mi NE 5.8 mph - N/A   Clear
2:50 AM 60.8 °F 37.4 °F 42% 30.20 in 8.0 mi Calm Calm - N/A   Clear
3:42 AM 57.2 °F 37.4 °F 48% 29.75 in 8.0 mi Calm Calm - N/A   Clear
4:47 AM 53.6 °F 39.2 °F 58% 30.16 in 8.0 mi Calm Calm - N/A   Clear
5:50 AM 51.8 °F 37.4 °F 58% 30.19 in 8.0 mi Calm Calm - N/A   Clear
6:46 AM 51.8 °F 39.2 °F 62% 29.88 in 8.0 mi Calm Calm - N/A   Partly Cloudy
7:45 AM 53.6 °F 39.2 °F 58% 30.26 in 6.0 mi Calm Calm - N/A   Partly Cloudy
8:45 AM 62.6 °F 39.2 °F 42% 30.28 in 6.0 mi Calm Calm - N/A   Partly Cloudy
9:45 AM 66.2 °F 42.8 °F 43% 29.89 in 6.0 mi South 5.8 mph - N/A   Mostly Cloudy
10:41 AM 71.6 °F 39.2 °F 31% 30.30 in 7.0 mi SSE 5.8 mph - N/A   Mostly Cloudy
11:46 AM 75.2 °F 37.4 °F 25% 30.29 in 8.0 mi Calm Calm - N/A   Scattered Clouds
12:50 PM 80.6 °F 32.0 °F 17% 29.85 in 8.0 mi SSW 8.1 mph - N/A   Partly Cloudy
1:50 PM 82.4 °F 30.2 °F 15% 30.24 in 10.0 mi WSW 11.5 mph - N/A   Clear
2:44 PM 87.8 °F 24.8 °F 10% 30.21 in 10.0 mi SSW 11.5 mph - N/A   Clear
3:44 PM 89.6 °F 23.0 °F 9% 29.70 in 10.0 mi West 8.1 mph - N/A   Clear
4:51 PM 89.6 °F 23.0 °F 9% 30.12 in 10.0 mi SSW 8.1 mph - N/A   Clear
5:45 PM 89.6 °F 15.8 °F 7% 30.09 in 10.0 mi WNW 15.0 mph - N/A   Clear
6:40 PM 87.8 °F 15.8 °F 7% 29.68 in 10.0 mi West 9.2 mph - N/A   Clear
7:49 PM 82.4 °F 14.0 °F 8% 30.12 in 10.0 mi West 4.6 mph - N/A   Clear
8:50 PM 75.2 °F 14.0 °F 10% 30.12 in 8.0 mi SSW 4.6 mph - N/A   Clear
9:44 PM 73.4 °F 17.6 °F 12% 29.72 in 8.0 mi SW 9.2 mph - N/A   Clear
10:42 PM 71.6 °F 17.6 °F 13% 30.18 in 8.0 mi Calm Calm - N/A   Clear
11:41 PM 66.2 °F 23.0 °F 19% 30.21 in 8.0 mi NW 4.6 mph - N/A   Clear